Regional Weather Roundup
Issued by NWS

Home | Current Version | Previous Version | Graphics & Text | Print | Product List | Glossary On
Versions: 1 2 3 4 5 6 7 8 9 10 11 12 13 14 15 16 17 18 19 20 21 22 23 24 25 26 27 28 29 30 31 32 33 34 35 36 37 38 39 40 41 42 43 44 45 46 47 48 49 50
778
ASUS43 KMPX 190410
RWRMN
WEATHER ROUNDUP FOR MINNESOTA
NATIONAL WEATHER SERVICE TWIN CITIES/CHANHASSEN MN
1100 PM CDT WED OCT 18 2017


NOTE: "FAIR" INDICATES FEW OR NO CLOUDS BELOW 12,000 FEET WITH NO
SIGNIFICANT WEATHER AND/OR OBSTRUCTIONS TO VISIBILITY. N/A MEANS
CURRENT SKY AND/OR WEATHER CONDITIONS ARE NOT AVAILABLE.

MNZ060>063-068>070-190500-
   Twin Cities Metro

CITY           SKY/WX    TMP DP  RH WIND       PRES   REMARKS
TWIN CITIES    PTCLDY    55  28  35 W12       30.01R
ST PAUL        CLEAR     54  27  35 W10       30.01R
CRYSTAL        CLEAR     51  26  37 W8        30.00
BLAINE         CLEAR     54  27  35 W8        30.00R
LAKEVILLE      CLOUDY    48  28  46 W6        30.02S
EDEN PRAIRIE   CLEAR     53  28  38 W8        30.01R
SOUTH ST PAUL  CLOUDY    55  26  32 W7        30.01R
LAKE ELMO      FAIR      52  30  43 W7        30.01R
$$
MNZ001>005-007-008-013>017-022>024-027-028-190500-
   Northwest Minnesota

CITY           SKY/WX    TMP DP  RH WIND       PRES   REMARKS
BEMIDJI        CLEAR     47  19  33 W12       29.88R
HALLOCK        CLOUDY    46  16  29 W13       29.83R
ROSEAU         CLEAR     50  16  25 W17G28    29.78S
WARROAD        CLEAR     48  19  32 W17G28    29.77R
THIEF RVR FALL CLOUDY    47  21  35 W17       29.87S
CROOKSTON      CLOUDY    46  21  36 W14       29.90S
FOSSTON        CLEAR     46  18  31 W12       29.90S
DETROIT LAKES  CLOUDY    50  25  37 W10       29.95S
MOORHEAD       CLOUDY    45  25  45 SW8       29.95S
PARK RAPIDS    CLOUDY    48  23  37 W13       29.92R
MAHNOMEN       FAIR      44  23  43 W12       29.92R
$$
MNZ006-009>011-018-025>026-190500-
   North Central Minnesota

CITY           SKY/WX    TMP DP  RH WIND       PRES   REMARKS
BAUDETTE       CLEAR     50  15  24 W15G31    29.77R
FLAG ISLAND    CLEAR     52  16  24 W17G28    29.70R
INTL FALLS     CLEAR     50  14  23 W15G23    29.75R
WASKISH        CLEAR     50  30  46 W17G24    29.82S
BIG FORK       CLEAR     52  16  24 W8        29.83R
LONGVILLE      CLEAR     48  19  32 W7G16     29.90R
GRAND RAPIDS   CLEAR     51  19  28 W15G21    29.88R
CRANE LAKE     CLEAR     48  10  21 W8        29.78R
ORR            CLEAR     48  10  21 W10G18    29.77R
COOK           CLEAR     48  16  27 W10G16    29.81R
WALKER         FAIR      49  21  32 W14       29.89S
$$
MNZ012-019>021-037-190500-
   Northeast Minnesota

CITY           SKY/WX    TMP DP  RH WIND       PRES   REMARKS
DULUTH         CLEAR     46  19  34 W13       29.86R
ELY            CLEAR     48  14  25 W15G25    29.78R
HIBBING        CLEAR     47  17  30 W7        29.84R
EVELETH        CLEAR     49  -1  12 W9G16     29.84R
DULUTH HARBOR  CLEAR     55  19  24 SW15      29.88R
TWO HARBORS    CLEAR     50  25  37 SW10      29.82R
SILVER BAY     CLEAR     52  16  24 W6        29.79R
GRAND MARAIS     N/A     49  31  49 W9        29.74R
G MARAIS ARPRT CLEAR     46  12  25 W8G22     29.74R
$$
MNZ029>031-032-039>041-046>048-054>057-064-190500-
   West Central Minnesota

CITY           SKY/WX    TMP DP  RH WIND       PRES   REMARKS
FERGUS FALLS   PTCLDY    39  28  65 W8        29.98F
WHEATON        CLOUDY    45  28  53 SW7       30.01S
MORRIS         CLOUDY    43  34  70 W8        30.00S
ALEXANDRIA     CLOUDY    45  28  51 SW6       30.00R
ELBOW LAKE     FAIR      41  31  67 CALM      29.99S
WADENA         CLOUDY    43  27  52 W6        29.95S
GLENWOOD       CLOUDY    46  36  66 W10       30.00R
APPLETON       CLOUDY    43  32  65 W5        30.02S
BENSON         CLOUDY    43  32  65 W9        30.03S
ORTONVILLE     CLOUDY    46  30  53 W3        30.02R
MADISON        PTCLDY    48  34  57 SW6       30.03S
WILLMAR        FAIR      48  32  53 W10       30.02F
$$
MNZ033>034-036-042>043-049>051-058-059-190500-
   Central Minnesota

CITY           SKY/WX    TMP DP  RH WIND       PRES   REMARKS
ST CLOUD       CLOUDY    46  30  53 W8        29.99S
SAUK CENTRE    FAIR      43  31  63 SW6       29.99S
PAYNESVILLE    CLOUDY    44  33  65 W6        30.02R
AITKIN         CLOUDY    48  19  32 SW7       29.91R
PINE RIVER     CLEAR     45  21  39 W3        29.96R
BRAINERD       CLEAR     47  22  37 W9        29.94S
STAPLES        CLOUDY    45  23  42 W7        29.95S
LONG PRAIRIE   FAIR      43  27  52 S5        29.98S
LITTLE FALLS   CLOUDY    45  18  33 SW3       29.98S
LITCHFIELD     CLOUDY    52  30  43 W5        30.02R
BUFFALO        CLEAR     49  30  46 SW3       30.02R
MAPLE LAKE     CLOUDY    49  33  54 SW3       30.02S
HUTCHINSON     CLOUDY    46  32  58 SW3       30.03S
$$
MNZ037-044-045-052-053-190500-
   East Central Minnesota

CITY           SKY/WX    TMP DP  RH WIND       PRES   REMARKS
PRINCETON      CLEAR     48  28  46 CALM      29.99S
MORA           CLOUDY    45  28  53 W7        29.98S
CAMBRIDGE      CLOUDY    52  32  46 W5        29.99R
RUSH CITY      CLOUDY    51  26  38 W8        29.98R
MOOSE LAKE     CLEAR     50  19  29 W7        29.90R
HINCKLEY       FAIR      46  30  53 SW10      29.95R
CLOQUET        CLEAR     48  10  21 SW13      29.88R
MCGREGOR       CLEAR     50  19  29 SW8       29.91R
$$
MNZ071>073-080-081-089-090-097-098-190500-
   Southwest Minnesota

CITY           SKY/WX    TMP DP  RH WIND       PRES   REMARKS
MONTEVIDEO     CLOUDY    46  28  49 CALM      30.03S
GRANITE FALLS  CLOUDY    41  34  76 SW5       30.05S
CANBY          CLOUDY    47  30  51 SW6       30.05R
MARSHALL       CLOUDY    45  32  60 W7        30.05F
REDWOOD FALLS  CLOUDY    47  30  51 SW3       30.04R
OLIVIA         CLOUDY    41  32  70 W7        30.03R
PIPESTONE      CLOUDY    48  27  43 CALM      30.06S
WORTHINGTON    CLOUDY    43  35  73 CALM      30.07R
JACKSON        CLOUDY    45  32  61 N3        30.07R HAZE
TRACY          CLOUDY    49  32  52 W5        30.05F
SLAYTON        CLOUDY    42  33  69 W5        30.06F
$$
MNZ065>067-074>077-082>085-091>093-190500-
   South Central Minnesota

CITY           SKY/WX    TMP DP  RH WIND       PRES   REMARKS
MANKATO        PTCLDY    49  29  46 W6        30.04S
NEW ULM          N/A     45  28  53 CALM      30.04F
ST JAMES       PTCLDY    45  32  61 W3        30.06S
FAIRMONT       CLOUDY    47  33  58 NW7       30.06R
GLENCOE        CLOUDY    47  32  55 W5        30.03R
FARIBAULT      CLOUDY    52  28  40 W7        30.04R
OWATONNA       CLEAR     45  32  61 W5        30.04R
WASECA         CLEAR     45  32  61 NW3       30.05S
$$
MNZ078>079-086>088-094>096-190500-
   Southeast Minnesota

CITY           SKY/WX    TMP DP  RH WIND       PRES   REMARKS
ROCHESTER      CLEAR     51  31  46 NW9       30.03R
RED WING       CLOUDY    52  23  32 W5        30.00R
STANTON        PTCLDY    50  29  44 W3        30.01R
DODGE CENTER   CLEAR     52  25  35 NW12G17   30.03R
WINONA         PTCLDY    55  30  38 W8        30.00R
AUSTIN         CLEAR     52  30  43 NW6       30.04R
PRESTON        CLOUDY    53  31  44 NW12      30.02R
$$
ABBREVIATIONS USED IN REMARKS
   TC - TEMPERATURES IN CELSIUS
  WCI - WIND CHILL INDEX
   HX - HEAT INDEX
  VSB - VISIBILITY
$$




USA.gov is the U.S. government's official web portal to all federal, state and local government web resources and services.